COSMOS 2251 DEB, 34008

Orbit data source: Space-Track

COSMOS 2251 DEB, 34008 is space debris in LEO originally from a launch on Wed, 16 Jun 1993 UTC launched from the Plesetsk Missile And Space Complex (PKMTR). The debris from Iridium 33, an American commercial communications satellite, has been tracked extensively since its accidental collision with the defunct Russian satellite Cosmos 2251 in 2009. This event, occurring at high speed in low Earth orbit (LEO), generated thousands of pieces of space debris, significantly increasing the risk of further collisions. The Iridium 33 debris cloud has impacted space traffic management and orbital debris mitigation strategies, making it a subject of ongoing study in space situational awareness.

Loading next visibility...
Identifier
34008, 1993-036GT
Orbit
LEO
Country
Flag of CISCIS
Related business
Manufacturer
Unknown
Mission
Spacecraft
Bus & Motor
Unknown
Mass
Unknown
Launch date (UTC)
1993-06-16 (33 years ago)
Launch vehicle
Unknown
Launch site
Plesetsk Missile And Space Complex (PKMTR)
Object type
Payload
Rocket body
Debris
Shape & HBR
Unknown shape, 0.2 m
Radar Cross Section
Small (<0.1 m²)

Expand to show TLE details & history
Last TLE update: 7 hours ago

TLE from 7 hours ago
0 COSMOS 2251 DEB
1 34008U 93036GT  25354.16984103  .00000203  00000-0  83402-4 0  9993
2 34008  74.0345 316.9388 0024550 310.9445  65.3586 14.33150928880713
Epoch: 2025-12-20T04:04Z
TLE epoch observation values (Epoch: 2025-12-20T04:04:34.264Z)
Latitude
15.88955°
Longitude
171.44191°
Altitude
775.859 km
Speed
7.471 km/s
True Right ascension
21h 26m 20s
True Declination
15° 47' 58"
Sunlit
Object was in daylight at epoch
Visualization orbit readout
Latitude
Unknown
Longitude
Unknown
Altitude
Unknown
Speed
Unknown
Apparent Right ascension
Unknown
Apparent Declination
Unknown
Sunlit
N/A
Visualization observer readout
Local Sidereal Time
10:10:53
Azimuth
Unknown
Elevation
Unknown
Doppler factor
Unknown
Orbital elements
Apogee altitude
796.416 km
Perigee altitude
761.275 km
Semi-major axis
7,156.982 km
Eccentricity
0.00246
Inclination
74.0345°
RAAN
316.9388°
Arg. of periapsis
310.9445°
True anomaly
65.61463°
Mean anomaly
65.3586°
Eccentric anomaly
65.48658°
Mean motion
3.58466 °/min
Orbital period
100.43 mins
BSTAR
0.000083402
Loading maneuver chart data...
Computing Atmospheric mass density...

Documentation

Showing up to 5 results
|